When you browse on this site, cookies collect data to enhance your experience and personalize the content and advertising you see.
Visit our Privacy Policy to learn more. By continuing to use the site, you agree to this use of cookies and data.

Hourly Weather Kavarna

Today, 7 July, Tuesday

Time Temperature Precipitation Wind Pressure Humidity
00:00 +25°C° 0 mm 2 mps 751 mmHg 81%
01:00 +24°C° 0 mm 3 mps 751 mmHg 81%
02:00 +24°C° 0 mm 3 mps 751 mmHg 83%
03:00 +24°C° 0 mm 3 mps 751 mmHg 83%
04:00 +23°C° 0 mm 4 mps 751 mmHg 83%
05:00 +23°C° 0 mm 4 mps 750 mmHg 84%
06:00 +25°C° 0 mm 4 mps 751 mmHg 78%
07:00 +27°C° 0 mm 3 mps 751 mmHg 73%
08:00 +29°C° 0 mm 3 mps 751 mmHg 67%
09:00 +30°C° 0.1 mm 3 mps 751 mmHg 63%
10:00 +31°C° 0.1 mm 2 mps 751 mmHg 59%
11:00 +32°C° 0.1 mm 2 mps 751 mmHg 55%
12:00 +34°C° 0 mm 2 mps 752 mmHg 52%
13:00 +34°C° 0 mm 2 mps 752 mmHg 49%
14:00 +35°C° 0 mm 2 mps 752 mmHg 47%
15:00 +34°C° 0 mm 3 mps 752 mmHg 51%
16:00 +33°C° 0 mm 3 mps 751 mmHg 56%
17:00 +32°C° 0 mm 4 mps 751 mmHg 61%
18:00 +28°C° 0.6 mm 6 mps 752 mmHg 69%
19:00 +26°C° 0.6 mm 8 mps 753 mmHg 77%
20:00 +22°C° 0.6 mm 10 mps 754 mmHg 85%
21:00 +22°C° 0.4 mm 10 mps 754 mmHg 85%
22:00 +21°C° 0.4 mm 9 mps 755 mmHg 85%
23:00 +19°C° 0.4 mm 9 mps 756 mmHg 85%

Tomorrow, 8 July, Wednesday

Time Temperature Precipitation Wind Pressure Humidity
00:00 +18°C° 0 mm 9 mps 756 mmHg 84%
01:00 +17°C° 0 mm 10 mps 757 mmHg 84%
02:00 +16°C° 0 mm 10 mps 757 mmHg 83%
03:00 +16°C° 0 mm 10 mps 758 mmHg 82%
04:00 +16°C° 0 mm 10 mps 758 mmHg 81%
05:00 +16°C° 0 mm 11 mps 758 mmHg 80%
06:00 +17°C° 0 mm 10 mps 759 mmHg 75%
07:00 +18°C° 0 mm 10 mps 759 mmHg 70%
08:00 +19°C° 0 mm 9 mps 760 mmHg 64%
09:00 +21°C° 0 mm 9 mps 760 mmHg 61%
10:00 +22°C° 0 mm 8 mps 761 mmHg 57%
11:00 +23°C° 0 mm 8 mps 761 mmHg 54%
12:00 +24°C° 0 mm 7 mps 761 mmHg 51%
13:00 +26°C° 0 mm 7 mps 761 mmHg 49%
14:00 +27°C° 0 mm 7 mps 761 mmHg 46%
15:00 +27°C° 0 mm 6 mps 761 mmHg 46%
16:00 +27°C° 0 mm 6 mps 761 mmHg 46%
17:00 +27°C° 0 mm 5 mps 761 mmHg 47%
18:00 +25°C° 0 mm 5 mps 761 mmHg 51%
19:00 +23°C° 0 mm 5 mps 761 mmHg 55%
20:00 +21°C° 0 mm 4 mps 762 mmHg 59%
21:00 +21°C° 0 mm 4 mps 762 mmHg 59%
22:00 +20°C° 0 mm 4 mps 762 mmHg 59%
23:00 +19°C° 0 mm 4 mps 762 mmHg 60%

Day after tomorrow, 9 July, Thursday

Time Temperature Precipitation Wind Pressure Humidity
00:00 +19°C° 0 mm 4 mps 762 mmHg 60%
01:00 +19°C° 0 mm 4 mps 762 mmHg 61%
02:00 +18°C° 0 mm 4 mps 762 mmHg 61%
03:00 +18°C° 0 mm 4 mps 762 mmHg 62%
04:00 +18°C° 0 mm 4 mps 763 mmHg 62%
05:00 +17°C° 0 mm 5 mps 763 mmHg 62%
06:00 +20°C° 0 mm 5 mps 763 mmHg 59%
07:00 +22°C° 0 mm 4 mps 763 mmHg 55%
08:00 +25°C° 0 mm 4 mps 763 mmHg 51%
09:00 +26°C° 0 mm 4 mps 763 mmHg 48%
10:00 +27°C° 0 mm 4 mps 763 mmHg 46%
11:00 +28°C° 0 mm 4 mps 764 mmHg 43%
12:00 +28°C° 0 mm 4 mps 763 mmHg 43%
13:00 +28°C° 0 mm 5 mps 763 mmHg 44%
14:00 +28°C° 0 mm 5 mps 763 mmHg 45%
15:00 +28°C° 0 mm 5 mps 763 mmHg 47%
16:00 +27°C° 0 mm 5 mps 763 mmHg 50%
17:00 +27°C° 0 mm 5 mps 762 mmHg 53%
18:00 +26°C° 0 mm 4 mps 762 mmHg 58%
19:00 +23°C° 0 mm 4 mps 763 mmHg 63%
20:00 +22°C° 0 mm 3 mps 763 mmHg 68%
21:00 +21°C° 0 mm 3 mps 763 mmHg 69%
22:00 +21°C° 0 mm 3 mps 763 mmHg 71%
23:00 +21°C° 0 mm 3 mps 763 mmHg 72%

10 July, Friday

Time Temperature Precipitation Wind Pressure Humidity
00:00 +20°C° 0 mm 3 mps 763 mmHg 73%
01:00 +20°C° 0 mm 3 mps 763 mmHg 74%
02:00 +20°C° 0 mm 4 mps 762 mmHg 74%
03:00 +20°C° 0 mm 4 mps 762 mmHg 75%
04:00 +20°C° 0 mm 5 mps 762 mmHg 75%
05:00 +20°C° 0 mm 5 mps 762 mmHg 75%
06:00 +22°C° 0 mm 5 mps 763 mmHg 69%
07:00 +24°C° 0 mm 6 mps 763 mmHg 62%
08:00 +27°C° 0 mm 6 mps 763 mmHg 56%
09:00 +27°C° 0 mm 6 mps 763 mmHg 54%
10:00 +28°C° 0 mm 6 mps 763 mmHg 52%
11:00 +29°C° 0 mm 6 mps 763 mmHg 50%
12:00 +29°C° 0 mm 6 mps 763 mmHg 49%
13:00 +29°C° 0 mm 7 mps 762 mmHg 49%
14:00 +29°C° 0 mm 7 mps 762 mmHg 49%
15:00 +29°C° 0 mm 7 mps 762 mmHg 51%
16:00 +28°C° 0 mm 7 mps 762 mmHg 53%
17:00 +28°C° 0 mm 7 mps 762 mmHg 56%
18:00 +26°C° 0 mm 6 mps 762 mmHg 61%
19:00 +24°C° 0 mm 6 mps 762 mmHg 67%
20:00 +22°C° 0 mm 6 mps 762 mmHg 73%
21:00 +22°C° 0 mm 5 mps 762 mmHg 74%
22:00 +22°C° 0 mm 5 mps 762 mmHg 75%
23:00 +22°C° 0 mm 5 mps 762 mmHg 76%

11 July, Saturday

Time Temperature Precipitation Wind Pressure Humidity
00:00 +22°C° 0 mm 5 mps 761 mmHg 77%
01:00 +22°C° 0 mm 4 mps 761 mmHg 79%
02:00 +22°C° 0 mm 4 mps 760 mmHg 80%
03:00 +21°C° 0 mm 4 mps 760 mmHg 82%
04:00 +21°C° 0 mm 4 mps 760 mmHg 83%
05:00 +21°C° 0 mm 4 mps 760 mmHg 85%
06:00 +23°C° 0 mm 4 mps 760 mmHg 78%
07:00 +25°C° 0 mm 4 mps 760 mmHg 72%
08:00 +27°C° 0 mm 4 mps 760 mmHg 66%
09:00 +28°C° 0 mm 5 mps 760 mmHg 62%
10:00 +28°C° 0 mm 5 mps 760 mmHg 58%
11:00 +29°C° 0 mm 5 mps 760 mmHg 55%
12:00 +29°C° 0 mm 5 mps 760 mmHg 55%
13:00 +30°C° 0 mm 5 mps 760 mmHg 56%
14:00 +30°C° 0 mm 5 mps 759 mmHg 56%
15:00 +29°C° 0 mm 5 mps 759 mmHg 59%
16:00 +29°C° 0 mm 5 mps 759 mmHg 62%
17:00 +28°C° 0 mm 5 mps 759 mmHg 65%
18:00 +27°C° 0 mm 5 mps 759 mmHg 71%
19:00 +26°C° 0 mm 4 mps 759 mmHg 78%
20:00 +23°C° 0 mm 4 mps 759 mmHg 84%
21:00 +24°C° 0 mm 3 mps 759 mmHg 85%
22:00 +22°C° 0 mm 3 mps 759 mmHg 87%
23:00 +23°C° 0 mm 2 mps 759 mmHg 88%

12 July, Sunday

Time Temperature Precipitation Wind Pressure Humidity
00:00 +23°C° 0 mm 2 mps 759 mmHg 88%
01:00 +21°C° 0 mm 2 mps 758 mmHg 88%
02:00 +21°C° 0 mm 2 mps 758 mmHg 89%
03:00 +21°C° 0 mm 2 mps 758 mmHg 89%
04:00 +21°C° 0 mm 3 mps 758 mmHg 90%
05:00 +20°C° 0 mm 3 mps 758 mmHg 90%
06:00 +22°C° 0 mm 3 mps 758 mmHg 82%
07:00 +25°C° 0 mm 3 mps 758 mmHg 74%
08:00 +27°C° 0 mm 3 mps 758 mmHg 66%
09:00 +28°C° 0 mm 3 mps 759 mmHg 59%
10:00 +29°C° 0 mm 3 mps 759 mmHg 53%
11:00 +30°C° 0 mm 2 mps 759 mmHg 47%
12:00 +29°C° 0.1 mm 2 mps 759 mmHg 54%
13:00 +28°C° 0.1 mm 2 mps 759 mmHg 61%
14:00 +27°C° 0.1 mm 1 mps 759 mmHg 68%
15:00 +27°C° 0.7 mm 3 mps 759 mmHg 71%
16:00 +26°C° 0.7 mm 4 mps 759 mmHg 73%
17:00 +24°C° 0.7 mm 6 mps 759 mmHg 76%
18:00 +23°C° 0.1 mm 7 mps 760 mmHg 74%
19:00 +22°C° 0.1 mm 8 mps 760 mmHg 73%
20:00 +21°C° 0.1 mm 10 mps 760 mmHg 71%
21:00 +21°C° 0 mm 10 mps 761 mmHg 69%
22:00 +19°C° 0 mm 10 mps 761 mmHg 66%
23:00 +19°C° 0 mm 10 mps 761 mmHg 64%
Show more